McCook, NE

6:44 PM CDT on March 25, 2017 (GMT -0500)
McCook Municipal

Weather History for KMCK - June, 2013

Change the Weather History Date:

Sunday, June 2, 2013

  Actual Average Record
Temperature  
Mean Temperature 58 °F 65 °F  
Max Temperature 77 °F 79 °F 103 °F (2002)
Min Temperature 39 °F 52 °F 35 °F (1917)
Degree Days  
Heating Degree Days 7    
Growing Degree Days 8 (Base 50)    
Moisture  
Dew Point 43 °F    
Average Humidity 59    
Maximum Humidity 96    
Minimum Humidity 33    
Precipitation  
Precipitation 0.00 in 0.11 in 1.25 in (2015)
Month to date precipitation 0.00 0.23  
Year to date precipitation 4.89 8.17  
Sea Level Pressure  
Sea Level Pressure 30.07 in    
Wind  
Wind Speed 8 mph (SSE)    
Max Wind Speed 21 mph    
Max Gust Speed 28 mph    
Visibility 10 miles    
Events      
T = Trace of Precipitation, MM = Missing Value Source: NWS Daily Summary

Daily Weather History Graph

Daily Weather History Graph

Search for Another Location

Airport or City:

Trip Planner

Search our weather history database for the weather conditions in past years. The results will help you decide how hot, cold, wet, or windy it might be!

Date:

Astronomy

Jun. 02, 2013 Rise Set
Actual Time 6:14 AM CDT 9:06 PM CDT
Civil Twilight 5:42 AM CDT 9:39 PM CDT
Nautical Twilight 5:01 AM CDT 10:20 PM CDT
Astronomical Twilight 4:14 AM CDT 11:07 PM CDT
Moon 2:42 AM CDT (6/2) 3:38 PM CDT (6/2)
Length of Visible Light 15h 57m
Length of Day
14h 52m
Waning Crescent, 30% of the Moon is Illuminated
Jun 2
Waning Crescent
Jun 8
New
Jun 16
First Quarter
Jun 23
Full
Jun 29
Last Quarter

Hourly Weather History & Observations

Time (CDT) Temp. Windchill Dew Point Humidity Pressure Visibility Wind Dir Wind Speed Gust Speed Precip Events Conditions
12:53 AM 46.0 °F 42.5 °F 39.9 °F 79% 30.16 in 10.0 mi NNW 6.9 mph - N/A   Clear
1:53 AM 44.1 °F 40.1 °F 39.9 °F 85% 30.18 in 10.0 mi WSW 6.9 mph - N/A   Clear
2:53 AM 43.0 °F 39.5 °F 39.9 °F 89% 30.18 in 10.0 mi West 5.8 mph - N/A   Clear
3:53 AM 44.1 °F 39.0 °F 39.9 °F 85% 30.16 in 10.0 mi WNW 9.2 mph - N/A   Clear
4:53 AM 41.0 °F 36.4 °F 39.0 °F 93% 30.17 in 10.0 mi WSW 6.9 mph - N/A   Clear
5:53 AM 39.9 °F 37.8 °F 37.9 °F 93% 30.18 in 10.0 mi WNW 3.5 mph - N/A   Clear
6:53 AM 41.0 °F 39.0 °F 39.9 °F 96% 30.18 in 10.0 mi WSW 3.5 mph - N/A   Clear
7:53 AM 48.9 °F - 43.0 °F 80% 30.17 in 10.0 mi Calm Calm - N/A   Clear
8:53 AM 53.1 °F - 44.1 °F 71% 30.18 in 10.0 mi Calm Calm - N/A   Clear
9:53 AM 59.0 °F - 44.1 °F 58% 30.17 in 10.0 mi SSE 4.6 mph - N/A   Clear
10:53 AM 62.1 °F - 43.0 °F 50% 30.15 in 10.0 mi Variable 3.5 mph - N/A   Clear
11:53 AM 64.9 °F - 43.0 °F 45% 30.12 in 10.0 mi Calm Calm - N/A   Clear
12:53 PM 68.0 °F - 43.0 °F 40% 30.09 in 10.0 mi SE 8.1 mph - N/A   Clear
1:53 PM 72.0 °F - 45.0 °F 38% 30.06 in 10.0 mi ESE 9.2 mph - N/A   Clear
2:53 PM 72.0 °F - 44.1 °F 37% 30.04 in 10.0 mi SSE 6.9 mph 16.1 mph N/A   Clear
3:53 PM 75.9 °F - 45.0 °F 33% 30.01 in 10.0 mi SE 15.0 mph 20.7 mph N/A   Clear
4:53 PM 75.9 °F - 45.0 °F 33% 29.99 in 10.0 mi South 13.8 mph - N/A   Clear
5:53 PM 77.0 °F - 46.0 °F 33% 29.96 in 10.0 mi SSE 15.0 mph 20.7 mph N/A   Clear
6:53 PM 75.0 °F - 46.0 °F 36% 29.94 in 10.0 mi SE 15.0 mph 23.0 mph N/A   Clear
7:53 PM 72.0 °F - 46.0 °F 40% 29.91 in 10.0 mi SE 20.7 mph 27.6 mph N/A   Clear
8:53 PM 68.0 °F - 45.0 °F 43% 29.91 in 10.0 mi SE 16.1 mph - N/A   Clear
9:53 PM 64.0 °F - 46.0 °F 52% 29.91 in 10.0 mi SE 13.8 mph - N/A   Clear
10:53 PM 61.0 °F - 45.0 °F 56% 29.92 in 10.0 mi SE 15.0 mph - N/A   Clear
11:53 PM 59.0 °F - 44.1 °F 58% 29.92 in 10.0 mi SE 15.0 mph - N/A   Clear